Probability
0 0 0 0 0 0 0 0 0 0 0 0 0 0 0 0 0 0 0 0 0 0 0 0 0 0 0 0 0 0 0 0 0 0 0 0 0 0 0 0 0 0 0 0 0 0 0 0 0
1 0 0 0 0 0 0 0 0 0 0 0 0 0 0 0 0 0 0 1 1 0 0 0 0 0 0 0 0 0 0 0 0 0 0 0 0 0 1 1 0 0 0 0 0 0 0 0 0
1 0 0 0 0 0 0 0 0 0 0 0 0 0 0 0 0 0 1 2 2 1 0 0 0 0 0 0 0 0 0 0 0 0 0 0 0 0 1 1 1 1 2 2 2 1 1 1 0
1 0 0 0 0 0 0 0 0 0 0 0 0 0 0 1 1 1 2 3 2 1 0 0 0 0 0 0 0 0 0 0 0 0 0 0 0 0 1 1 1 2 4 5 4 3 2 2 1
0 0 0 0 0 0 0 0 0 0 0 0 0 0 1 2 2 3 3 3 2 1 0 0 0 0 0 0 0 0 0 0 0 0 0 0 1 0 0 0 1 4 6 6 5 3 2 2 2
0 0 0 0 0 0 0 0 0 0 0 0 0 0 1 2 3 3 3 2 1 0 0 0 0 0 0 0 0 0 0 0 0 0 0 0 0 0 0 0 1 4 5 6 6 4 1 1 1
0 0 0 0 0 0 0 0 0 0 0 0 0 0 1 2 3 3 1 1 0 0 0 0 0 0 0 0 0 0 0 0 0 0 0 0 0 0 0 0 1 2 4 5 6 4 3 2 1
0 0 0 0 0 0 0 0 0 0 0 0 0 0 1 2 3 2 1 0 0 0 0 0 0 0 0 0 0 0 0 0 0 0 0 0 0 0 0 0 0 1 2 4 4 4 4 4 4
0 0 0 0 0 0 0 0 0 0 0 0 0 1 1 3 3 3 1 0 0 0 0 0 0 0 0 0 0 0 0 0 0 0 0 0 0 0 0 0 0 1 1 3 4 4 4 4 4
0 0 0 0 0 0 0 0 0 0 0 0 0 1 2 3 3 3 2 0 0 0 0 0 0 0 0 0 0 0 0 0 0 0 0 0 0 0 0 0 0 0 0 1 3 4 2 2 2
0 0 0 0 0 0 0 0 0 0 0 0 0 1 3 3 3 3 1 0 0 0 0 0 0 0 0 0 0 0 0 0 0 0 0 0 0 0 0 0 0 0 0 0 1 2 1 1 1
0 0 0 0 0 0 0 0 0 0 0 0 0 1 2 3 3 2 1 0 0 0 0 0 0 0 0 0 0 0 0 0 0 0 0 0 0 0 0 0 0 0 0 0 1 2 2 1 1
0 1 1 0 0 0 0 0 0 0 0 0 0 0 1 2 1 1 0 0 0 0 0 0 0 0 0 0 0 0 0 0 0 0 0 0 0 0 0 0 0 0 0 1 2 3 2 1 0
1 2 2 1 0 0 0 0 0 0 0 0 0 0 0 0 0 0 0 0 0 0 0 0 0 0 0 0 0 0 0 0 0 0 0 0 0 0 0 0 0 0 0 1 2 3 2 1 0
2 2 2 1 0 0 0 0 0 0 0 0 0 0 0 0 0 0 0 0 0 0 0 0 0 0 0 0 0 0 0 0 0 0 0 0 0 0 0 0 0 0 0 0 1 2 2 1 1
1 1 1 0 0 0 0 0 0 0 0 0 0 0 0 0 0 0 1 0 0 0 0 0 0 0 0 0 0 0 0 0 0 0 0 0 0 0 0 0 0 0 0 0 1 1 1 1 2
0 0 0 0 0 0 0 0 0 0 0 0 0 0 0 0 0 0 0 0 0 0 0 0 0 0 0 0 0 0 0 0 0 0 0 0 0 0 0 0 0 0 0 0 0 0 1 1 1
0 0 0 0 0 0 0 0 0 0 0 0 0 0 0 0 0 0 0 0 0 0 0 0 0 0 0 0 0 0 0 0 0 0 0 0 0 0 0 0 0 0 0 0 0 0 1 2 1
0 0 0 0 0 0 0 0 0 0 0 0 0 0 0 0 0 0 0 0 0 0 0 0 0 0 0 0 0 0 0 0 0 0 0 0 0 0 0 0 0 0 0 0 0 1 2 2 2
0 0 0 0 0 0 0 0 0 0 0 0 0 0 0 0 0 0 0 0 0 0 0 0 0 0 0 0 0 0 0 0 0 0 0 0 0 0 0 0 0 0 0 0 0 1 2 2 1
0 0 0 0 0 0 0 0 0 0 0 0 0 0 0 0 0 0 0 0 0 0 0 0 0 0 0 0 0 0 0 0 0 0 0 0 0 0 0 0 0 0 0 0 0 0 1 1 1
0 0 0 0 0 0 0 0 0 0 0 0 0 0 0 0 0 0 0 0 0 0 0 0 0 0 0 0 0 0 0 0 0 0 0 0 0 0 0 0 0 0 0 0 0 0 0 0 0
0 0 0 0 0 0 0 0 0 0 0 0 0 0 0 0 0 0 0 0 0 0 0 0 0 0 0 0 0 0 0 0 0 0 0 0 0 0 0 0 0 0 0 0 0 0 0 0 0
0 0 0 0 0 0 0 0 0 0 0 0 0 0 0 0 0 0 0 0 0 0 0 0 0 0 0 0 0 0 0 0 0 0 0 0 0 0 0 0 0 0 0 0 0 0 0 0 0
0 0 0 0 0 0 0 0 0 0 0 0 0 0 0 0 0 0 0 0 0 0 0 0 0 0 0 0 0 0 0 0 0 0 0 0 0 0 0 0 0 0 0 0 0 0 0 0 0
0 0 0 0 0 0 0 0 0 0 0 0 0 0 0 0 0 0 0 0 0 0 0 0 0 0 0 0 0 0 0 0 0 0 0 0 0 0 0 0 0 0 0 0 0 0 0 0 0
0 0 0 0 0 0 0 0 0 0 0 0 0 0 0 0 0 0 0 0 0 0 0 0 0 0 0 0 0 0 0 0 0 0 0 0 0 0 0 0 0 0 0 0 0 0 0 0 0
0 0 0 0 0 0 0 0 0 0 0 0 0 0 0 0 0 0 0 0 0 0 0 0 0 0 0 0 0 0 0 0 0 0 0 0 0 0 0 0 0 0 0 0 0 0 0 0 0
0 0 0 0 0 0 0 0 0 0 0 0 0 0 0 0 0 0 0 0 0 0 0 0 0 0 0 0 0 0 0 0 0 0 0 0 0 0 0 0 0 0 0 0 0 0 0 0 0
0 0 0 0 0 0 0 0 0 0 0 0 0 0 0 0 0 0 0 0 0 0 0 0 0 0 0 0 0 0 0 0 0 0 0 0 0 0 0 0 0 0 0 0 0 0 0 0 0
Wind_Speed
7 4 3 3 4 2 3 4 2 3 3 4 4 3 4 5 5 5 5 4 4 5 5 6 4 3 2 1 1 1 1 2 2 2 2 3 3 3 3 4 4 4 4 4 3 3 3 2 1
5 4 4 4 3 1 4 3 3 4 4 3 3 2 3 5 5 6 5 5 5 5 4 4 4 2 1 1 1 1 2 2 3 3 3 4 4 5 5 5 5 5 5 5 5 4 4 3 3
5 4 4 3 1 1 3 3 4 4 3 1 2 2 4 5 5 5 6 6 6 6 5 5 3 2 2 2 1 1 2 2 2 2 3 3 4 5 5 6 6 6 6 6 5 4 5 4 4
4 4 4 3 1 2 2 2 2 4 3 1 1 3 4 4 4 6 7 6 6 5 4 6 3 2 2 2 2 2 2 2 2 2 2 3 3 4 5 6 6 6 6 6 6 5 5 5 5
3 4 3 1 1 2 0 1 2 1 2 2 1 3 5 5 6 7 7 6 5 5 4 5 4 2 3 3 3 2 3 3 3 3 3 3 3 3 3 5 6 6 7 7 7 5 5 5 6
3 3 2 0 1 1 1 2 2 1 2 2 1 2 5 7 7 7 6 5 5 4 3 4 5 3 3 3 3 3 3 4 4 4 4 4 4 3 3 3 5 5 6 7 6 6 6 6 6
3 2 2 1 0 1 2 3 3 1 1 1 1 2 6 8 8 7 6 5 4 3 2 1 2 3 2 2 3 3 4 4 5 5 4 4 4 4 4 4 4 5 5 5 6 5 5 6 6
3 3 3 2 2 1 2 3 1 2 1 3 2 1 4 9 9 7 6 5 4 3 2 1 1 0 1 1 2 3 3 4 4 4 5 5 4 4 4 5 3 4 5 5 5 5 5 6 6
3 4 3 2 2 1 4 4 3 1 3 3 3 1 5 10 10 9 7 6 4 3 2 2 1 1 1 2 2 1 1 2 3 2 2 5 5 5 4 3 4 5 5 4 4 4 6 7 7
5 4 3 1 2 1 4 4 4 4 5 5 5 5 7 10 10 9 7 6 5 3 2 1 0 1 1 2 1 2 2 2 4 5 5 5 5 4 6 1 4 5 5 5 3 5 7 8 5
5 5 3 3 4 3 4 4 5 5 5 5 6 8 10 11 10 9 7 5 4 3 2 1 1 1 2 1 2 2 2 2 4 5 5 5 5 4 4 4 3 4 5 5 3 5 4 5 4
6 6 5 4 3 5 5 4 5 8 5 2 3 7 11 11 11 9 7 5 4 3 2 2 1 0 1 2 2 3 3 3 3 4 6 5 4 4 4 4 4 4 3 3 4 3 4 5 5
9 6 5 5 5 6 6 6 6 7 5 4 5 8 11 11 10 8 6 5 5 4 4 2 1 1 2 2 2 3 3 4 4 4 5 5 4 5 4 4 3 5 4 4 4 5 5 5 5
6 5 4 4 5 5 6 6 6 5 4 6 8 9 10 9 9 7 7 6 5 4 4 3 2 1 2 3 3 3 3 3 4 3 5 6 5 5 4 5 4 4 4 4 5 5 5 4 4
4 6 5 5 4 3 5 8 8 4 5 6 8 8 8 8 8 8 7 6 4 4 3 3 1 1 2 3 4 3 3 4 3 3 5 6 5 6 5 5 5 4 5 5 5 5 4 5 5
7 8 7 4 4 3 6 7 2 3 6 6 7 7 8 8 8 7 6 5 4 4 4 3 1 1 2 3 3 3 3 4 3 4 4 6 6 6 5 5 5 5 5 4 4 4 4 4 4
8 9 8 4 5 4 6 7 1 3 6 6 7 8 8 7 7 6 6 5 5 5 4 3 2 1 2 3 3 3 4 3 3 4 4 5 6 6 6 4 5 5 4 4 5 4 4 4 4
8 8 7 5 3 6 8 9 5 4 6 7 7 8 8 8 7 6 5 6 6 5 4 3 2 0 1 1 2 2 3 3 3 4 4 6 6 6 6 5 6 5 4 4 4 4 4 4 3
7 8 8 5 1 6 9 10 8 4 6 7 7 8 8 7 7 6 7 7 7 6 4 3 2 1 1 2 3 3 4 4 4 4 5 6 6 6 5 5 5 4 4 5 5 4 5 4 3
9 9 8 5 1 6 9 11 7 4 5 6 6 7 8 7 8 8 7 7 7 6 4 3 2 1 1 2 3 3 4 4 4 4 4 5 6 5 5 5 4 4 4 5 4 4 4 3 2
10 10 8 6 3 5 8 8 5 4 4 4 6 6 6 7 8 8 8 7 7 6 5 3 2 1 0 1 2 3 3 3 3 4 4 5 5 5 5 5 5 4 4 3 4 4 4 4 3
9 6 7 6 7 4 4 7 2 3 4 5 6 7 7 7 7 8 8 7 7 6 5 4 2 1 0 1 2 4 4 5 5 5 4 5 4 5 5 5 5 4 4 3 4 3 4 4 4
4 1 4 5 6 7 6 8 2 3 5 5 6 7 7 8 8 8 8 7 6 6 5 4 3 2 1 1 1 3 4 4 4 4 4 5 4 4 5 4 4 4 3 4 4 4 4 3 4
5 5 4 5 6 7 4 6 3 3 2 4 5 7 8 8 8 8 7 6 6 6 5 4 3 2 1 2 3 3 4 5 5 5 5 5 4 4 4 4 4 4 3 3 4 4 4 4 4
7 6 5 6 6 3 2 5 3 3 1 1 2 6 8 8 8 8 8 8 7 7 6 5 4 2 2 2 3 3 3 4 5 6 5 6 5 4 5 4 4 4 3 3 4 4 4 4 4
7 8 5 3 2 1 4 5 0 2 0 2 3 4 7 8 8 8 8 8 7 7 6 5 4 3 2 2 3 3 3 3 3 4 5 5 5 5 6 5 4 4 4 3 3 3 3 3 4
5 6 4 5 3 4 3 2 2 3 4 5 5 7 8 9 9 9 9 8 8 7 7 6 5 3 3 2 2 3 3 3 4 5 4 4 5 5 6 5 4 4 4 4 3 2 3 3 3
3 2 4 5 4 4 3 3 1 4 6 7 7 8 8 8 9 9 8 8 8 7 6 6 5 4 3 2 2 1 2 3 4 4 5 5 5 5 6 5 4 4 3 3 3 3 2 3 2
6 5 4 3 4 5 3 0 2 1 3 5 6 6 7 8 9 9 8 8 7 7 7 6 5 4 3 2 2 2 1 2 3 3 4 4 5 5 5 5 4 4 4 3 2 2 2 2 2
5 5 7 6 4 4 5 1 3 2 3 4 5 5 6 7 7 8 8 8 8 8 7 6 6 5 3 2 2 1 2 2 3 3 4 4 4 4 4 4 4 4 3 3 3 2 2 2 2
Wind_Direction
177 174 213 242 237 217 77 74 65 71 65 54 44 31 31 28 7 48 90 107 114 120 118 129 120 123 123 109 90 53 7 355 349 329 309 308 306 301 294 289 281 277 275 274 267 265 272 269 274
159 176 226 244 260 145 89 84 79 62 79 98 76 43 56 66 59 84 110 108 121 122 120 107 110 124 115 77 42 17 358 2 358 344 331 326 319 313 304 294 288 282 281 282 279 268 264 256 259
159 215 248 244 268 31 83 84 85 92 109 118 77 41 33 69 91 105 109 123 125 117 119 108 115 109 107 98 70 26 8 13 357 348 334 321 319 323 318 310 300 292 284 278 278 272 270 262 252
191 211 231 248 77 60 48 96 111 127 126 94 77 97 84 77 96 110 123 131 123 117 118 107 102 83 80 74 60 43 24 12 1 351 337 314 313 317 314 316 314 306 295 288 280 270 267 270 262
227 247 238 210 71 77 125 136 162 142 114 106 89 84 103 112 115 126 136 136 130 122 119 113 94 66 51 39 27 20 10 5 359 355 344 330 319 315 317 317 314 310 302 295 289 273 262 258 264
228 250 262 269 88 105 162 173 190 164 115 126 132 103 103 130 143 145 144 147 134 130 132 127 120 77 43 29 15 1 352 349 347 350 344 341 341 333 328 328 318 313 303 295 293 281 269 262 260
262 273 290 295 253 179 151 179 202 191 158 142 154 117 122 151 153 154 154 153 145 143 149 144 131 137 123 52 5 358 355 352 352 349 344 341 337 325 319 312 313 308 301 300 298 283 271 270 266
273 270 257 251 250 178 151 180 194 241 114 116 187 161 133 152 158 162 162 165 163 165 167 162 125 91 3 85 77 13 8 7 359 355 351 332 299 275 279 277 302 304 297 300 303 286 267 259 261
236 251 254 242 252 177 170 192 167 188 164 164 188 105 109 142 159 171 176 181 179 180 181 171 159 70 358 348 57 13 41 24 306 301 346 299 296 301 276 328 329 302 297 298 302 286 263 254 242
216 250 266 274 260 249 191 209 183 191 198 196 180 165 151 162 175 183 189 188 185 184 173 165 172 23 349 359 359 327 319 332 314 323 326 314 313 310 308 316 276 284 288 270 273 275 258 249 238
220 246 258 246 243 246 214 207 201 221 228 216 193 174 171 180 188 195 197 195 191 184 172 174 160 56 350 349 341 336 325 323 312 324 318 312 306 299 293 297 266 258 259 270 250 247 254 255 253
226 243 251 256 224 229 228 212 214 229 246 219 186 170 175 189 194 199 201 200 195 193 184 173 205 347 347 347 342 324 327 328 328 326 325 320 313 307 310 296 304 295 284 287 281 273 261 260 256
227 240 234 246 236 236 233 229 239 240 235 203 179 181 188 196 198 198 199 202 205 196 183 173 207 320 334 350 325 320 333 328 329 331 317 321 313 308 309 299 300 294 294 280 279 275 267 263 255
231 241 248 247 232 226 236 240 236 237 196 191 190 192 194 197 202 197 199 205 204 196 177 162 184 295 326 329 329 336 333 323 318 327 318 319 315 308 307 301 302 298 294 294 286 274 271 262 257
231 238 237 220 222 223 244 242 227 221 190 198 198 194 196 198 204 209 203 201 196 184 172 155 175 301 322 331 340 328 321 324 324 326 319 320 318 309 306 304 302 300 295 290 283 281 271 260 254
221 236 240 206 210 199 239 263 209 181 202 207 204 193 198 198 207 206 198 194 183 176 167 144 169 283 327 338 332 324 323 325 319 320 319 318 319 313 307 300 300 302 297 292 285 277 269 258 255
220 238 245 223 198 206 237 271 234 197 218 219 206 199 196 192 197 195 193 188 179 174 167 158 157 300 353 343 318 318 322 321 316 318 320 323 323 314 304 301 299 300 295 289 285 280 277 267 259
229 242 246 244 191 230 246 263 256 223 237 235 213 203 195 193 188 181 177 176 173 168 164 154 148 89 0 316 317 326 326 323 323 325 323 324 315 316 310 299 296 298 291 289 282 280 270 271 264
256 253 257 269 290 254 262 272 274 246 229 226 213 205 197 187 172 166 165 170 170 166 164 152 170 121 339 334 328 330 334 329 332 332 331 323 317 316 312 305 305 300 291 291 289 282 269 262 267
242 250 256 263 250 268 282 280 273 240 229 230 218 202 194 181 173 167 169 172 175 167 167 166 168 157 352 350 329 326 324 321 331 325 326 327 325 320 309 304 301 297 292 286 287 275 275 267 248
237 248 259 277 282 248 284 268 229 175 202 206 212 205 190 187 184 172 173 175 175 173 170 175 176 173 30 330 315 313 310 300 316 330 336 335 327 321 312 308 305 301 291 293 289 278 267 268 249
239 247 259 263 265 266 279 286 226 172 198 192 187 185 184 180 181 174 175 178 181 175 171 182 177 185 179 270 316 328 330 335 342 336 335 324 323 324 322 314 306 298 297 293 285 281 270 264 258
238 201 236 248 259 266 239 267 233 172 200 175 174 179 178 177 177 173 176 177 178 172 175 180 179 186 221 288 314 303 325 334 334 331 333 326 331 327 325 319 311 300 294 295 291 286 277 263 258
161 174 188 221 243 249 242 261 252 158 155 143 158 172 175 174 173 169 166 170 171 169 173 181 189 190 225 269 285 303 324 324 329 334 338 330 330 326 336 322 309 299 295 292 288 283 270 266 263
199 218 219 212 215 229 145 254 265 74 59 216 175 170 172 174 175 172 173 175 175 176 179 186 191 205 228 270 290 304 313 314 323 330 334 330 332 334 341 328 312 311 305 295 288 280 276 261 260
206 234 252 265 254 196 194 248 95 88 232 231 207 171 172 177 179 180 181 180 180 182 185 194 196 212 231 268 294 305 309 307 325 327 328 330 335 337 335 325 319 316 313 298 280 278 274 264 255
194 222 285 286 284 274 235 249 234 159 186 184 175 172 180 182 183 184 183 184 186 186 188 195 199 212 228 251 280 303 316 316 321 320 324 329 333 333 332 329 325 324 321 315 303 277 271 265 255
303 189 210 243 267 266 261 250 229 174 186 184 187 187 184 185 185 184 184 186 187 187 188 189 202 213 223 242 268 295 303 314 318 321 328 330 333 334 332 332 331 329 322 313 305 296 290 268 257
176 199 229 242 273 284 288 351 58 262 203 203 200 194 188 188 189 186 184 184 183 182 183 187 196 206 210 228 248 267 298 313 315 322 328 329 328 329 329 331 335 332 330 328 315 309 303 278 278
241 240 232 249 231 259 284 300 113 232 240 231 222 204 196 193 190 187 183 180 182 184 184 187 190 192 192 210 239 270 297 305 315 331 332 326 324 327 333 341 345 349 343 342 333 325 308 284 285